Weather History for KFSM - January, 2014

Change the Weather History Date:

Saturday, January 25, 2014

  Actual Average Record
Temperature  
Mean Temperature 44 °F 40 °F  
Max Temperature 64 °F 51 °F 80 °F (1950)
Min Temperature 24 °F 29 °F 2 °F (1905)
Degree Days  
Heating Degree Days 21 25  
Month to date heating degree days 689 645  
Since 1 July heating degree days 2076 1944  
Moisture  
Dew Point 23 °F    
Average Humidity 54    
Maximum Humidity 81    
Minimum Humidity 27    
Precipitation  
Precipitation 0.00 in 0.09 in 2.99 in (2012)
Month to date precipitation 0.79 2.24  
Year to date precipitation 0.79 2.24  
Sea Level Pressure  
Sea Level Pressure 30.02 in    
Wind  
Wind Speed 5 mph (West)    
Max Wind Speed 17 mph    
Max Gust Speed 21 mph    
Visibility 10 miles    
Events      
T = Trace of Precipitation, MM = Missing Value Source: NWS Daily Summary

Daily Weather History Graph

Daily Weather History Graph

Search for Another Location

Airport or City:

Trip Planner

Search our weather history database for the weather conditions in past years. The results will help you decide how hot, cold, wet, or windy it might be!

Date:

Astronomy

Jan. 25, 2014 Rise Set
Actual Time 7:21 AM CST 5:38 PM CST
Civil Twilight 6:54 AM CST 6:05 PM CST
Nautical Twilight 6:23 AM CST 6:36 PM CST
Astronomical Twilight 5:53 AM CST 7:06 PM CST
Moon 1:55 AM CST (1/25) 12:39 PM CST (1/25)
Length of Visible Light 11h 11m
Length of Day
10h 17m
Waning Crescent, 34% of the Moon is Illuminated
Jan 25
Waning Crescent
Jan 30
New
Feb 6
First Quarter
Feb 14
Full
Feb 22
Last Quarter

Hourly Weather History & Observations

Time (CST) Temp. Windchill Dew Point Humidity Pressure Visibility Wind Dir Wind Speed Gust Speed Precip Events Conditions
12:53 AM 30.9 °F 26.2 °F 6.1 °F 35% 30.09 in 10.0 mi WSW 4.6 mph - N/A   Clear
1:53 AM 28.0 °F - 9.0 °F 45% 30.07 in 10.0 mi Calm Calm - N/A   Clear
2:53 AM 28.0 °F - 12.0 °F 51% 30.04 in 10.0 mi Calm Calm - N/A   Clear
3:53 AM 26.1 °F - 14.0 °F 60% 30.03 in 10.0 mi Calm Calm - N/A   Clear
4:53 AM 26.1 °F - 15.1 °F 63% 30.01 in 10.0 mi Calm Calm - N/A   Clear
5:53 AM 26.1 °F - 16.0 °F 66% 30.03 in 10.0 mi Calm Calm - N/A   Clear
6:53 AM 24.1 °F - 18.0 °F 77% 30.04 in 10.0 mi Calm Calm - N/A   Clear
7:53 AM 25.0 °F - 19.9 °F 81% 30.06 in 10.0 mi Calm Calm - N/A   Clear
8:53 AM 37.9 °F 31.5 °F 15.1 °F 39% 30.06 in 10.0 mi WSW 9.2 mph - N/A   Clear
9:53 AM 44.1 °F 38.1 °F 16.0 °F 32% 30.07 in 10.0 mi West 11.5 mph - N/A   Clear
10:53 AM 48.0 °F - 19.0 °F 32% 30.08 in 10.0 mi West 9.2 mph - N/A   Clear
11:53 AM 53.1 °F - 21.9 °F 30% 30.05 in 10.0 mi WSW 8.1 mph - N/A   Clear
12:53 PM 57.0 °F - 25.0 °F 29% 30.02 in 10.0 mi West 9.2 mph - N/A   Clear
1:53 PM 60.1 °F - 27.0 °F 28% 29.99 in 10.0 mi SW 10.4 mph - N/A   Clear
2:53 PM 62.1 °F - 30.0 °F 30% 29.97 in 10.0 mi WSW 12.7 mph - N/A   Clear
3:53 PM 63.0 °F - 30.9 °F 30% 29.98 in 10.0 mi West 8.1 mph - N/A   Clear
4:53 PM 62.1 °F - 30.9 °F 31% 29.99 in 10.0 mi NW 12.7 mph - N/A   Clear
5:53 PM 57.0 °F - 30.9 °F 37% 30.00 in 10.0 mi NW 5.8 mph - N/A   Clear
6:53 PM 53.1 °F - 30.9 °F 43% 30.01 in 10.0 mi NW 3.5 mph - N/A   Clear
7:53 PM 42.1 °F 39.2 °F 30.0 °F 62% 30.02 in 10.0 mi West 4.6 mph - N/A   Clear
8:53 PM 41.0 °F - 30.9 °F 67% 30.01 in 10.0 mi Calm Calm - N/A   Clear
9:53 PM 39.0 °F - 30.0 °F 70% 29.99 in 10.0 mi Calm Calm - N/A   Clear
10:53 PM 35.1 °F - 28.0 °F 76% 29.98 in 10.0 mi Calm Calm - N/A   Clear
11:53 PM 36.0 °F - 28.9 °F 76% 29.96 in 10.0 mi Calm Calm - N/A   Clear